Whiteman AFB, MO

5:17 AM CST on December 15, 2019 (GMT -0600)
Whiteman Air Force Base

Weather History for KSZL - October, 2019

Change the Weather History Date:

Monday, October 28, 2019

  Actual Average Record
Temperature  
Mean Temperature 42 °F -  
Max Temperature 46 °F 61 °F 81 °F (2016)
Min Temperature 35 °F 44 °F 25 °F (2008)
Degree Days  
Heating Degree Days 23    
Moisture  
Dew Point 41 °F    
Average Humidity 95    
Maximum Humidity 100    
Minimum Humidity 80    
Precipitation  
Precipitation 0.34 in - - ()
Sea Level Pressure  
Sea Level Pressure 30.04 in    
Wind  
Wind Speed 8 mph (North)    
Max Wind Speed 13 mph    
Max Gust Speed -    
Visibility 8 miles    
Events Rain    
Averages and records for this station are not official NWS values.
T = Trace of Precipitation, MM = Missing Value Source: NWS Daily Summary

Daily Weather History Graph

Daily Weather History Graph

Search for Another Location

Airport or City:

Astronomy

Oct. 28, 2019 Rise Set
Actual Time 7:36 AM CDT 6:18 PM CDT
Civil Twilight 7:09 AM CDT 6:46 PM CDT
Nautical Twilight 6:38 AM CDT 7:17 PM CDT
Astronomical Twilight 6:07 AM CDT 7:48 PM CDT
Moon 7:59 AM CDT (10/28) 7:04 PM CDT (10/28)
Length of Visible Light 11h 36m
Length of Day
10h 42m
New Moon, 0% of the Moon is Illuminated
Oct 28
New Moon
Nov 4
First Quarter
Nov 12
Full
Nov 19
Last Quarter
Nov 26
New

Hourly Weather History & Observations

Time (CDT) Temp. Windchill Dew Point Humidity Pressure Visibility Wind Dir Wind Speed Gust Speed Precip Events Conditions
12:56 AM 43.2 °F 39.0 °F 42.6 °F 98% 30.02 in 10.0 mi North 6.9 mph - N/A   Overcast
1:56 AM 42.1 °F 37.1 °F 42.1 °F 100% 30.03 in 10.0 mi North 8.1 mph - N/A   Clear
2:56 AM 41.2 °F 36.6 °F 41.2 °F 100% 30.04 in 10.0 mi North 6.9 mph - N/A   Clear
3:59 AM 40.5 °F 37.3 °F 40.5 °F 100% 30.05 in 10.0 mi North 4.6 mph - N/A   Scattered Clouds
4:56 AM 43.0 °F 39.5 °F 43.0 °F 100% 30.06 in 10.0 mi North 5.8 mph - N/A   Mostly Cloudy
6:56 AM 44.1 °F 39.0 °F 42.4 °F 94% 30.07 in 10.0 mi North 9.2 mph - N/A   Mostly Cloudy
7:58 AM 43.9 °F 38.3 °F 41.2 °F 90% 30.08 in 10.0 mi North 10.4 mph - N/A   Overcast
8:55 AM 44.1 °F 38.1 °F 39.9 °F 85% 30.09 in 10.0 mi NNE 11.5 mph - N/A   Overcast
9:56 AM 44.8 °F 39.4 °F 39.6 °F 82% 30.09 in 10.0 mi North 10.4 mph - N/A   Overcast
10:35 AM 44.6 °F 39.7 °F 39.2 °F 81% 30.09 in 10.0 mi North 9.2 mph - N/A   Overcast
10:56 AM 44.8 °F 39.4 °F 40.5 °F 85% 30.08 in 10.0 mi North 10.4 mph - N/A   Overcast
11:56 AM 45.7 °F 41.5 °F 39.9 °F 80% 30.07 in 10.0 mi NE 8.1 mph - N/A   Overcast
12:56 PM 46.0 °F 41.4 °F 40.3 °F 80% 30.04 in 10.0 mi NNE 9.2 mph - N/A   Overcast
2:56 PM 43.9 °F 39.3 °F 41.7 °F 92% 30.01 in 10.0 mi North 8.1 mph - N/A   Overcast
3:07 PM 42.8 °F 37.5 °F 42.8 °F 100% 30.01 in 5.0 mi NNE 9.2 mph - N/A   Light Drizzle
3:40 PM 42.8 °F 38.0 °F 42.8 °F 100% 30.00 in 3.0 mi NNE 8.1 mph - N/A   Light Drizzle
3:56 PM 42.1 °F 37.1 °F 42.1 °F 100% 30.01 in 3.0 mi NNE 8.1 mph - 0.00 in   Light Drizzle
4:26 PM 41.0 °F 35.2 °F 41.0 °F 100% 30.01 in 5.0 mi North 9.2 mph - N/A Rain Light Rain
4:56 PM 41.4 °F 36.2 °F 41.4 °F 100% 30.00 in 5.0 mi North 8.1 mph - 0.02 in Rain Light Rain
5:05 PM 41.0 °F 36.4 °F 41.0 °F 100% 29.99 in 3.0 mi NNE 6.9 mph - N/A Rain Light Rain
6:56 PM 41.0 °F 35.2 °F 41.0 °F 100% 29.96 in 5.0 mi NNE 9.2 mph - 0.02 in Rain Light Rain
7:49 PM 39.2 °F 31.6 °F 39.2 °F 100% 30.01 in 5.0 mi NNW 12.7 mph - N/A Rain Heavy Rain
7:56 PM 38.7 °F 30.9 °F 38.7 °F 100% 30.01 in 5.0 mi NNW 12.7 mph - 0.14 in Rain Heavy Rain
8:39 PM 39.2 °F 33.0 °F 39.2 °F 100% 30.02 in 7.0 mi North 9.2 mph - N/A Rain Rain
8:56 PM 38.7 °F 32.4 °F 38.7 °F 100% 30.02 in 7.0 mi North 9.2 mph - 0.16 in Rain Light Rain
11:59 PM 35.2 °F 29.5 °F 35.2 °F 100% 30.09 in 6.0 mi North 6.9 mph - 0.00 in   Light Drizzle